Atlanta, GA

4:57 PM EST on January 21, 2017 (GMT -0500)
Atlanta Fulton

Weather History for KFTY - January, 2014

Change the Weather History Date:

Wednesday, January 15, 2014

  Actual Average Record
Temperature  
Mean Temperature 39 °F 43 °F  
Max Temperature 47 °F 53 °F 74 °F (2017)
Min Temperature 31 °F 33 °F 21 °F (2000)
Degree Days  
Heating Degree Days 26 22  
Month to date heating degree days 400 330  
Since 1 July heating degree days 1537 1467  
Moisture  
Dew Point 27 °F    
Average Humidity 62    
Maximum Humidity 96    
Minimum Humidity 28    
Precipitation  
Precipitation T in 0.13 in 1.88 in (2016)
Month to date precipitation 2.52 1.59  
Year to date precipitation 2.52 1.59  
Snow  
Snow 0.00 in - - ()
Month to date snowfall T  
Since 1 July snowfall T  
Snow Depth 0.00 in    
Sea Level Pressure  
Sea Level Pressure 30.01 in    
Wind  
Wind Speed 7 mph (NW)    
Max Wind Speed 17 mph    
Max Gust Speed 24 mph    
Visibility 10 miles    
Events      
T = Trace of Precipitation, MM = Missing Value Source: NWS Daily Summary

Daily Weather History Graph

Daily Weather History Graph

Search for Another Location

Airport or City:

Trip Planner

Search our weather history database for the weather conditions in past years. The results will help you decide how hot, cold, wet, or windy it might be!

Date:

Astronomy

Jan. 15, 2014 Rise Set
Actual Time 7:42 AM EST 5:52 PM EST
Civil Twilight 7:15 AM EST 6:19 PM EST
Nautical Twilight 6:45 AM EST 6:50 PM EST
Astronomical Twilight 6:15 AM EST 7:20 PM EST
Moon 5:46 PM EST (1/15) 7:00 AM EST (1/15)
Length of Visible Light 11h 03m
Length of Day
10h 09m
Full, 100% of the Moon is Illuminated
Jan 15
Full
Jan 15
Full
Jan 24
Last Quarter
Jan 30
New
Feb 6
First Quarter

Hourly Weather History & Observations

Time (EST) Temp. Windchill Dew Point Humidity Pressure Visibility Wind Dir Wind Speed Gust Speed Precip Events Conditions
12:53 AM 35.1 °F - 32.0 °F 89% 29.99 in 10.0 mi Calm Calm - N/A   Clear
1:53 AM 34.0 °F - 32.0 °F 92% 29.97 in 10.0 mi Calm Calm - N/A   Clear
2:53 AM 35.1 °F 32.2 °F 33.1 °F 92% 29.98 in 10.0 mi WSW 3.5 mph - N/A   Clear
3:53 AM 33.1 °F - 30.9 °F 92% 29.98 in 10.0 mi Calm Calm - N/A   Clear
4:53 AM 32.0 °F - 30.0 °F 92% 29.97 in 10.0 mi Calm Calm - N/A   Clear
5:53 AM 37.9 °F 35.5 °F 30.9 °F 76% 29.99 in 10.0 mi Variable 3.5 mph - N/A   Partly Cloudy
6:53 AM 39.0 °F - 32.0 °F 76% 29.99 in 10.0 mi Calm Calm - N/A   Partly Cloudy
7:53 AM 39.0 °F 36.8 °F 33.1 °F 79% 30.01 in 10.0 mi NNW 3.5 mph - N/A   Mostly Cloudy
8:53 AM 42.1 °F 36.6 °F 32.0 °F 67% 30.03 in 10.0 mi NW 9.2 mph - N/A   Mostly Cloudy
9:53 AM 43.0 °F 37.7 °F 30.0 °F 60% 30.06 in 10.0 mi NW 9.2 mph 19.6 mph N/A   Overcast
10:53 AM 45.0 °F 39.7 °F 30.9 °F 58% 30.06 in 10.0 mi NW 10.4 mph 19.6 mph N/A   Overcast
11:53 AM 45.0 °F 39.7 °F 33.1 °F 63% 30.04 in 10.0 mi NNW 10.4 mph - N/A   Overcast
12:02 PM 44.6 °F 37.8 °F 32.0 °F 61% 30.03 in 10.0 mi West 15.0 mph 19.6 mph N/A   Overcast
12:20 PM 44.6 °F 38.8 °F 32.0 °F 61% 30.01 in 10.0 mi NW 11.5 mph - N/A   Overcast
12:53 PM 44.1 °F 39.5 °F 30.9 °F 60% 30.01 in 10.0 mi WNW 8.1 mph - N/A   Overcast
1:53 PM 45.0 °F 38.9 °F 30.9 °F 58% 29.99 in 10.0 mi West 12.7 mph - 0.00 in   Overcast
2:53 PM 45.0 °F 39.7 °F 28.9 °F 53% 29.98 in 10.0 mi NW 10.4 mph - N/A   Partly Cloudy
3:53 PM 46.0 °F 39.9 °F 21.9 °F 39% 29.98 in 10.0 mi West 13.8 mph 17.3 mph N/A   Clear
4:53 PM 45.0 °F 39.7 °F 14.0 °F 29% 29.98 in 10.0 mi NW 10.4 mph 21.9 mph N/A   Clear
5:53 PM 43.0 °F 38.2 °F 16.0 °F 34% 30.00 in 10.0 mi WNW 8.1 mph - N/A   Mostly Cloudy
6:53 PM 39.9 °F 35.1 °F 17.1 °F 40% 30.01 in 10.0 mi NW 6.9 mph - N/A   Partly Cloudy
7:53 PM 37.9 °F 30.0 °F 14.0 °F 38% 30.04 in 10.0 mi NW 12.7 mph 19.6 mph N/A   Clear
8:53 PM 37.0 °F 30.4 °F 14.0 °F 39% 30.05 in 10.0 mi NW 9.2 mph - N/A   Partly Cloudy
9:53 PM 35.1 °F 27.9 °F 19.0 °F 52% 30.07 in 10.0 mi NW 9.2 mph - N/A   Clear
10:53 PM 32.0 °F 24.8 °F 19.9 °F 61% 30.07 in 10.0 mi NNW 8.1 mph - N/A   Clear
11:53 PM 30.9 °F 24.3 °F 19.0 °F 61% 30.06 in 10.0 mi NW 6.9 mph - N/A   Clear